Time,TemperatureF,DewpointF,PressureIn,WindDirection,WindDirectionDegrees,WindSpeedMPH,WindSpeedGustMPH,Humidity,HourlyPrecipIn,Conditions,Clouds,dailyrainin,SoftwareType,DateUTC
2013-05-01 00:01:00,43.0,25.0,-100.00,North,10,5.0,7.0,48,-99.99,,,-99.99,,2013-05-01 07:01:00,
2013-05-01 00:11:00,43.0,25.0,-100.00,North,10,5.0,7.0,48,-99.99,,,-99.99,,2013-05-01 07:11:00,
2013-05-01 01:01:00,41.0,26.0,-100.00,SE,130,1.0,5.0,54,-99.99,,,-99.99,,2013-05-01 08:01:00,
2013-05-01 01:11:00,41.0,26.0,-100.00,SE,130,1.0,5.0,54,-99.99,,,-99.99,,2013-05-01 08:11:00,
2013-05-01 02:01:00,38.0,29.0,-100.00,East,100,1.0,2.0,69,-99.99,,,-99.99,,2013-05-01 09:01:00,
2013-05-01 03:02:00,38.0,26.0,-100.00,South,175,3.0,7.0,61,-99.99,,,-99.99,,2013-05-01 10:02:00,
2013-05-01 03:12:00,38.0,26.0,-100.00,South,175,3.0,7.0,61,-99.99,,,-99.99,,2013-05-01 10:12:00,
2013-05-01 04:02:00,37.0,26.0,-100.00,South,180,1.0,6.0,64,-99.99,,,-99.99,,2013-05-01 11:02:00,
2013-05-01 05:01:00,36.0,26.0,-100.00,SSE,155,2.0,9.0,66,-99.99,,,-99.99,,2013-05-01 12:01:00,
2013-05-01 05:11:00,36.0,26.0,-100.00,SSE,155,2.0,9.0,66,-99.99,,,-99.99,,2013-05-01 12:11:00,
2013-05-01 06:01:00,35.0,26.0,-100.00,SSE,155,2.0,8.0,69,-99.99,,,-99.99,,2013-05-01 13:01:00,
2013-05-01 07:02:00,34.0,26.0,-100.00,North,10,2.0,6.0,72,-99.99,,,-99.99,,2013-05-01 14:02:00,
2013-05-01 07:11:00,34.0,26.0,-100.00,North,10,2.0,6.0,72,-99.99,,,-99.99,,2013-05-01 14:11:00,
2013-05-01 08:01:00,35.0,26.0,-100.00,South,170,1.0,6.0,69,-99.99,,,-99.99,,2013-05-01 15:01:00,
2013-05-01 08:10:00,38.0,28.0,-100.00,North,5,1.0,5.0,66,-99.99,,,-99.99,,2013-05-01 15:10:00,
2013-05-01 09:03:00,38.0,28.0,-100.00,North,5,1.0,5.0,66,-99.99,,,-99.99,,2013-05-01 16:03:00,
2013-05-01 10:02:00,42.0,29.0,-100.00,North,5,1.0,6.0,59,-99.99,,,-99.99,,2013-05-01 17:02:00,
2013-05-01 10:10:00,53.0,27.0,-100.00,NE,45,1.0,3.0,36,-99.99,,,-99.99,,2013-05-01 17:10:00,
2013-05-01 11:00:00,56.0,24.0,-100.00,WSW,255,3.0,10.0,28,-99.99,,,-99.99,,2013-05-01 18:00:00,
2013-05-01 11:01:00,53.0,27.0,-100.00,NE,45,1.0,3.0,36,-99.99,,,-99.99,,2013-05-01 18:01:00,
2013-05-01 13:20:00,61.0,24.0,-100.00,WNW,300,5.0,10.0,24,-99.99,,,-99.99,,2013-05-01 20:20:00,
2013-05-01 14:01:00,61.0,24.0,-100.00,WNW,300,5.0,10.0,24,-99.99,,,-99.99,,2013-05-01 21:01:00,
2013-05-01 14:10:00,63.0,25.0,-100.00,WSW,245,7.0,12.0,23,-99.99,,,-99.99,,2013-05-01 21:10:00,
2013-05-01 14:11:00,61.0,24.0,-100.00,WNW,300,5.0,10.0,24,-99.99,,,-99.99,,2013-05-01 21:11:00,
2013-05-01 15:03:00,63.0,25.0,-100.00,WSW,245,7.0,12.0,23,-99.99,,,-99.99,,2013-05-01 22:03:00,